OneWeb SL0621

operational
NORAD ID: 55162 Int'l Des: 2023-004 Owner: ONEWEBN Country: UK Constellation: oneweb
LEOCIRCULARPOLARONEWEB_TYPE

About OneWeb SL0621

Description loading...

Live Position

Loading 3D Globe...

Upcoming Passes

Altitude History

Altitude vs Time

uPlot chart will show altitude changes over time

Two-Line Element Set

1 55162U 23004Y 25353.18126193 .00000504 00000-0 13850-2 0 9995
2 55162 87.8859 56.8994 0001904 108.1008 252.0327 13.11415444142218
Epoch: Dec 19, 2025 • Age: 11 hours

Current Status

Altitude 1237.4 km
Velocity 7.23 km/s
Sub-Earth Point -47.52°S, 99.61°E
Launch Date Jan 10, 2023
Age 2.9 years
Type internet

Technical Details

Classification Payload
Mass 148.00 kg
Dry Mass 140.00 kg
Total Mass 148.00 kg
Length 1.30 m
Diameter 1.00 m
Span 5.00 m
Shape Trapezoid+2 pan
Manufacturer ONEWUS
Bus Type ARROW
Phase Status In Orbit
Owner/State ONEWEBN/UK

Large Constellations

Loading constellations...